Location: Neu-Ulm
(48.3873°N, 10.0192°E)
Time: 02:39:54
(UTC+01:00)

ISS - Pass Details

Date: 05 January 2018
Orbit: 402 x 407 km, 51.6° (Epoch: 23 January)

Event Time Altitude Azimuth Distance (km) Brightness Sun altitude
Exits shadow 06:02:54 46° 20° (NNE) 558 -3.2 -20.3°
Drops below altitude 10° 06:05:43 10° 68° (ENE) 1,472 -0.2 -19.9°
Sets 06:07:50 0° 74° (ENE) 2,334 1.1 -19.5°
